GW1094 Weather Reports


time (UTC)temp
C
wind
direction
speed
KPH
gust
KPH
rain 1hr
cm
rain 24hr
cm
rain mn
cm
humidity
%
barometer
mb
20260508020521 4 213 0.0 0.0 0.00 0.00 0.00 96 4097.7
20260508020018 4 213 0.0 0.0 0.00 0.00 0.00 96 4097.3
20260508015515 4 213 0.0 0.0 0.00 0.00 0.00 97 4097.7
20260508015012 4 214 0.0 0.0 0.00 0.00 0.00 96 4097.3
20260508014508 5 216 1.6 3.2 0.00 0.00 0.00 97 4097.7
20260508014005 4 45 0.0 0.0 0.00 0.00 0.00 95 4097.3
20260508013501 5 38 0.0 0.0 0.00 0.00 0.00 94 4097.7
20260508012958 5 38 0.0 0.0 0.00 0.00 0.00 94 4097.7
20260508012455 5 38 0.0 0.0 0.00 0.00 0.00 93 4097.7
20260508011953 5 38 1.6 1.6 0.00 0.00 0.00 92 4097.7
20260508011451 5 37 0.0 0.0 0.00 0.00 0.00 91 4097.7
20260508010948 5 37 0.0 1.6 0.00 0.00 0.00 90 4097.7
20260508010445 5 1 0.0 1.6 0.00 0.00 0.00 88 4097.3
20260508005942 5 319 0.0 1.6 0.00 0.00 0.00 88 4097.3
20260508005438 5 129 1.6 3.2 0.00 0.00 0.00 88 4097.3
20260508004935 5 103 3.2 4.8 0.00 0.00 0.00 85 4097.3
20260508004431 5 31 0.0 1.6 0.00 0.00 0.00 82 4097.3
20260508003928 5 31 0.0 0.0 0.00 0.00 0.00 83 4097.3
20260508003425 5 31 0.0 0.0 0.00 0.00 0.00 83 4097.0
20260508002922 5 31 0.0 0.0 0.00 0.00 0.00 83 4097.0
20260508002419 5 31 0.0 0.0 0.00 0.00 0.00 84 4097.0
20260508001915 5 31 0.0 0.0 0.00 0.00 0.00 83 4097.0
20260508001411 6 31 0.0 0.0 0.00 0.00 0.00 83 4097.0
20260508000908 6 31 0.0 0.0 0.00 0.00 0.00 83 4097.0
20260508000405 6 31 0.0 0.0 0.00 0.00 0.00 82 4097.0
20260507235901 6 31 0.0 0.0 0.00 0.00 0.00 82 4097.0
20260507235358 6 31 0.0 0.0 0.00 0.00 0.00 82 4096.5
20260507234855 6 31 0.0 0.0 0.00 0.00 0.00 82 4097.0
20260507234351 6 31 0.0 0.0 0.00 0.00 0.00 82 4096.5
20260507233848 6 31 0.0 0.0 0.00 0.00 0.00 82 4096.5
20260507233345 6 31 0.0 0.0 0.00 0.00 0.00 81 4096.5
20260507232843 6 31 0.0 0.0 0.00 0.00 0.00 81 4096.5
20260507232339 6 30 0.0 0.0 0.00 0.00 0.00 81 4096.5
20260507231837 6 35 0.0 0.0 0.00 0.00 0.00 81 4096.5
20260507231334 6 36 0.0 0.0 0.00 0.00 0.00 81 4097.0
20260507230830 6 36 0.0 0.0 0.00 0.00 0.00 80 4097.0
20260507230327 6 36 0.0 0.0 0.00 0.00 0.00 80 4097.0
20260507225827 6 36 0.0 0.0 0.00 0.00 0.00 80 4097.0
20260507225323 6 36 0.0 0.0 0.00 0.00 0.00 79 4097.0
20260507224820 6 36 0.0 0.0 0.00 0.00 0.00 79 4097.0
20260507224316 6 36 0.0 0.0 0.00 0.00 0.00 80 4097.0
20260507223812 6 36 0.0 0.0 0.00 0.00 0.00 79 4097.0
20260507223309 7 36 0.0 0.0 0.00 0.00 0.00 80 4097.0
20260507222806 7 36 0.0 0.0 0.00 0.00 0.00 78 4097.0
20260507222305 7 36 0.0 0.0 0.00 0.00 0.00 77 4097.0
20260507221800 7 36 0.0 0.0 0.00 0.00 0.00 77 4097.0
20260507221256 7 32 0.0 0.0 0.00 0.00 0.00 77 4097.0
20260507220752 7 32 1.6 1.6 0.00 0.00 0.00 76 4097.0
20260507220251 7 20 0.0 1.6 0.00 0.00 0.00 76 4097.0
20260507215746 7 26 0.0 0.0 0.00 0.00 0.00 76 4097.0
20260507215244 7 10 1.6 3.2 0.00 0.00 0.00 75 4097.0
20260507214741 7 18 1.6 1.6 0.00 0.00 0.00 75 4097.3
20260507214238 7 27 0.0 0.0 0.00 0.00 0.00 74 4097.0
20260507213733 7 28 0.0 0.0 0.00 0.00 0.00 74 4097.0
20260507213231 7 24 1.6 3.2 0.00 0.00 0.00 74 4097.0
20260507212726 7 1 1.6 3.2 0.00 0.00 0.00 74 4097.0
20260507212223 7 3 0.0 0.0 0.00 0.00 0.00 73 4097.0
20260507211720 7 3 0.0 0.0 0.00 0.00 0.00 74 4097.0
20260507211216 7 348 1.6 1.6 0.00 0.00 0.00 73 4097.0
20260507210714 8 13 0.0 0.0 0.00 0.00 0.00 77 4097.0
20260507210210 8 14 0.0 0.0 0.00 0.00 0.00 74 4096.5
20260507205707 8 14 1.6 1.6 0.00 0.00 0.00 72 4097.0
20260507205203 8 12 1.6 3.2 0.00 0.00 0.00 73 4097.0
20260507204659 8 56 1.6 3.2 0.00 0.00 0.00 72 4096.5
20260507204158 8 32 1.6 1.6 0.00 0.00 0.00 73 4097.0
20260507203655 8 15 1.6 1.6 0.00 0.00 0.00 71 4097.0
20260507203153 8 65 0.0 1.6 0.00 0.00 0.00 71 4097.0
20260507202648 8 65 0.0 0.0 0.00 0.00 0.00 72 4097.0
20260507202144 8 34 0.0 0.0 0.00 0.00 0.00 71 4096.5
20260507201639 8 78 1.6 1.6 0.00 0.00 0.00 71 4097.0
20260507201137 8 68 1.6 1.6 0.00 0.00 0.00 71 4096.5
20260507200633 8 68 0.0 1.6 0.00 0.00 0.00 73 4097.0
20260507200129 8 53 1.6 1.6 0.00 0.00 0.00 72 4097.0
20260507195626 8 78 1.6 3.2 0.00 0.00 0.00 73 4097.0
20260507195123 8 63 0.0 1.6 0.00 0.00 0.00 73 4097.0
20260507194620 7 19 3.2 3.2 0.00 0.00 0.00 73 4097.0
20260507194115 8 3 0.0 0.0 0.00 0.00 0.00 74 4097.0
20260507193612 8 335 0.0 1.6 0.00 0.00 0.00 74 4097.0
20260507193109 7 305 0.0 1.6 0.00 0.00 0.00 74 4097.0
20260507192606 7 37 1.6 3.2 0.00 0.00 0.00 73 4097.0
20260507192103 7 64 0.0 1.6 0.00 0.00 0.00 74 4097.0
20260507191558 7 36 1.6 1.6 0.00 0.00 0.00 76 4097.0
20260507191055 7 327 0.0 1.6 0.00 0.00 0.00 77 4097.3
20260507190552 7 331 4.8 4.8 0.00 0.00 0.00 75 4097.3
20260507190051 7 92 1.6 3.2 0.00 0.00 0.00 80 4097.0
20260507185549 7 143 1.6 1.6 0.00 0.00 0.00 79 4097.3
20260507185045 8 93 1.6 4.8 0.00 0.00 0.00 76 4097.3
20260507184544 8 346 0.0 0.0 0.00 0.00 0.00 75 4097.3
20260507184041 8 81 0.0 1.6 0.00 0.00 0.00 76 4097.3
20260507183537 9 303 4.8 4.8 0.00 0.00 0.00 71 4097.3
20260507183034 8 210 1.6 1.6 0.00 0.00 0.00 75 4097.3
20260507182530 8 224 3.2 3.2 0.00 0.00 0.00 73 4097.7
20260507182026 10 70 1.6 3.2 0.00 0.00 0.00 70 4097.7
20260507181524 10 181 1.6 3.2 0.00 0.00 0.00 71 4097.3
20260507181020 10 204 0.0 1.6 0.00 0.00 0.00 71 4097.7
20260507180516 10 143 0.0 1.6 0.00 0.00 0.00 73 4097.7
20260507180013 9 218 0.0 0.0 0.00 0.00 0.00 73 4097.7
20260507175509 8 69 0.0 0.0 0.00 0.00 0.00 74 4097.7
20260507175007 8 89 0.0 1.6 0.00 0.00 0.00 75 4097.7
20260507174504 8 122 0.0 1.6 0.00 0.00 0.00 76 4098.0
20260507174002 8 104 1.6 1.6 0.00 0.00 0.00 75 4098.0
20260507173458 7 107 0.0 0.0 0.00 0.00 0.00 77 4098.0
20260507172955 8 158 1.6 1.6 0.00 0.00 0.00 75 4097.7
20260507172451 8 220 0.0 0.0 0.00 0.00 0.00 74 4098.0
20260507171948 8 148 0.0 0.0 0.00 0.00 0.00 74 4098.0
20260507171444 8 160 0.0 0.0 0.00 0.00 0.00 76 4098.0
20260507170941 8 189 0.0 0.0 0.00 0.00 0.00 78 4098.3
20260507170438 8 123 0.0 0.0 0.00 0.00 0.00 78 4098.0
20260507165934 7 123 0.0 0.0 0.00 0.00 0.00 76 4098.3
20260507165431 8 124 1.6 1.6 0.00 0.00 0.00 76 4098.3
20260507164926 8 131 0.0 0.0 0.00 0.00 0.00 77 4098.3
20260507164423 7 131 0.0 0.0 0.00 0.00 0.00 77 4098.7
20260507163920 8 136 0.0 0.0 0.00 0.00 0.00 78 4098.7
20260507163418 8 156 0.0 0.0 0.00 0.00 0.00 78 4098.7
20260507162914 7 156 0.0 0.0 0.00 0.00 0.00 79 4098.7
20260507162410 7 159 0.0 0.0 0.00 0.00 0.00 80 4098.7
20260507161908 7 246 0.0 1.6 0.00 0.00 0.00 78 4098.7
20260507161403 6 238 0.0 1.6 0.00 0.00 0.00 80 4098.7
20260507160900 6 238 0.0 1.6 0.00 0.00 0.00 82 4098.7
20260507160356 6 247 0.0 1.6 0.00 0.00 0.00 80 4098.7
20260507155852 6 253 1.6 1.6 0.00 0.00 0.00 80 4098.7
20260507155348 6 241 1.6 1.6 0.00 0.00 0.00 80 4099.0
20260507154845 6 240 0.0 0.0 0.00 0.00 0.00 78 4098.7
20260507154342 7 239 0.0 0.0 0.00 0.00 0.00 78 4098.7
20260507153839 7 240 1.6 1.6 0.00 0.00 0.00 78 4098.7
20260507153336 7 237 0.0 0.0 0.00 0.00 0.00 79 4099.0
20260507152832 7 237 0.0 0.0 0.00 0.00 0.00 80 4098.7
20260507152329 7 235 0.0 0.0 0.00 0.00 0.00 81 4098.7
20260507151825 7 236 0.0 0.0 0.00 0.00 0.00 81 4098.7
20260507151321 7 236 0.0 1.6 0.00 0.00 0.00 80 4099.0
20260507150818 6 236 0.0 0.0 0.00 0.00 0.00 82 4099.0
20260507150315 6 237 0.0 1.6 0.00 0.00 0.00 83 4098.7
20260507145811 6 237 0.0 0.0 0.00 0.00 0.00 83 4098.7
20260507145308 6 238 0.0 0.0 0.00 0.00 0.00 84 4098.7
20260507144805 6 229 0.0 0.0 0.00 0.00 0.00 84 4098.7
20260507144302 5 229 0.0 0.0 0.00 0.00 0.00 83 4098.7
20260507143758 5 229 0.0 0.0 0.00 0.00 0.00 86 4098.7
20260507143256 5 229 0.0 0.0 0.00 0.00 0.00 86 4098.7
20260507142751 5 230 1.6 1.6 0.00 0.00 0.00 86 4099.0
20260507142248 5 229 1.6 1.6 0.00 0.00 0.00 86 4098.7
20260507141745 5 230 1.6 3.2 0.00 0.00 0.00 86 4098.7
20260507141242 5 232 4.8 4.8 0.00 0.00 0.00 86 4099.0
20260507140738 5 233 3.2 3.2 0.00 0.00 0.00 85 4099.0
20260507140236 5 233 3.2 3.2 0.00 0.00 0.00 85 4099.0
20260507135732 4 236 4.8 8.0 0.00 0.00 0.00 88 4099.0
20260507135230 4 239 6.4 8.0 0.00 0.00 0.00 86 4099.0
20260507134726 4 238 8.0 8.0 0.00 0.00 0.00 87 4099.0
20260507134222 4 240 6.4 8.0 0.00 0.00 0.00 88 4098.7
20260507133718 4 246 8.0 9.7 0.00 0.00 0.00 88 4099.0
20260507133215 4 236 6.4 8.0 0.00 0.00 0.00 89 4099.0
20260507132713 4 232 6.4 8.0 0.00 0.00 0.00 90 4099.0
20260507132209 3 233 4.8 4.8 0.00 0.00 0.00 91 4098.7
20260507131706 3 224 4.8 4.8 0.00 0.00 0.00 90 4099.0
20260507131204 3 215 4.8 4.8 0.00 0.00 0.00 89 4099.0
20260507130700 3 222 6.4 8.0 0.00 0.00 0.00 90 4099.0
20260507130158 3 214 8.0 8.0 0.00 0.00 0.00 90 4099.0
20260507125656 3 219 8.0 8.0 0.00 0.00 0.00 89 4098.7
20260507125154 3 220 6.4 8.0 0.00 0.00 0.00 92 4098.7
20260507124649 3 222 8.0 9.7 0.00 0.00 0.00 92 4098.7
20260507124147 2 208 6.4 8.0 0.00 0.00 0.00 93 4099.0
20260507123646 2 211 8.0 8.0 0.00 0.00 0.00 93 4099.0
20260507123142 2 208 8.0 9.7 0.00 0.00 0.00 95 4099.0
20260507122637 2 209 8.0 8.0 0.00 0.00 0.00 96 4099.0
20260507122133 2 213 8.0 9.7 0.00 0.00 0.00 97 4098.7
20260507121630 2 225 8.0 9.7 0.00 0.00 0.00 97 4098.7
20260507121126 2 217 9.7 9.7 0.00 0.00 0.00 97 4098.7
20260507120622 2 222 9.7 11.3 0.00 0.00 0.00 97 4098.7
20260507120119 2 214 9.7 11.3 0.00 0.00 0.00 98 4098.7
20260507115615 2 217 9.7 11.3 0.00 0.00 0.00 99 4098.7
20260507115111 2 207 8.0 8.0 0.00 0.00 0.00 99 4098.7
20260507114607 2 213 8.0 8.0 0.00 0.00 0.00 99 4098.7
20260507114104 2 202 4.8 4.8 0.00 0.00 0.00 99 4098.7
20260507113601 2 208 8.0 8.0 0.00 0.00 0.00 98 4098.7
20260507113059 2 209 8.0 9.7 0.00 0.00 0.00 98 4098.3
20260507112557 1 214 8.0 9.7 0.00 0.00 0.00 99 4098.7
20260507112053 0 206 6.4 8.0 0.00 0.00 0.00 99 4098.7
20260507111550 0 93 0.0 0.0 0.00 0.00 0.00 99 4098.7
20260507111047 -1 93 0.0 0.0 0.00 0.00 0.00 98 4098.3
20260507110543 -1 93 0.0 0.0 0.00 0.00 0.00 98 4098.3
20260507110040 -1 93 0.0 0.0 0.00 0.00 0.00 97 4098.3
20260507105537 -1 93 0.0 0.0 0.00 0.00 0.00 97 4098.3
20260507105032 -1 93 0.0 0.0 0.00 0.00 0.00 97 4098.3
20260507104530 -1 93 0.0 0.0 0.00 0.00 0.00 97 4098.3
20260507104026 -1 93 0.0 0.0 0.00 0.00 0.00 97 4098.3
20260507103523 -1 93 0.0 0.0 0.00 0.00 0.00 96 4098.0
20260507103019 -1 93 0.0 0.0 0.00 0.00 0.00 96 4098.3
20260507102516 -1 93 0.0 0.0 0.00 0.00 0.00 97 4098.3
20260507102012 -1 93 0.0 0.0 0.00 0.00 0.00 97 4098.3
20260507101507 -1 93 0.0 0.0 0.00 0.00 0.00 96 4098.3
20260507101004 -1 93 0.0 0.0 0.00 0.00 0.00 97 4098.3
20260507100502 -1 93 0.0 0.0 0.00 0.00 0.00 96 4098.3
20260507095959 -1 93 0.0 0.0 0.00 0.00 0.00 96 4098.3
20260507095457 -1 93 0.0 0.0 0.00 0.00 0.00 96 4098.3
20260507094954 -1 93 0.0 0.0 0.00 0.00 0.00 96 4098.3
20260507094450 -1 93 0.0 0.0 0.00 0.00 0.00 97 4098.3
20260507093947 -1 93 0.0 0.0 0.00 0.00 0.00 98 4098.3
20260507093445 -1 93 0.0 0.0 0.00 0.00 0.00 99 4098.3
20260507092943 -1 93 0.0 0.0 0.00 0.00 0.00 98 4098.3
20260507092439 -1 94 0.0 0.0 0.00 0.00 0.00 98 4098.7
20260507091936 -1 93 0.0 0.0 0.00 0.00 0.00 99 4098.7
20260507091432 -1 93 0.0 0.0 0.00 0.00 0.00 98 4098.3
20260507090928 -1 93 0.0 0.0 0.00 0.00 0.00 99 4098.7
20260507090424 0 93 0.0 0.0 0.00 0.00 0.00 98 4098.7
20260507085921 0 94 0.0 0.0 0.00 0.00 0.00 99 4098.7
20260507085418 0 94 0.0 0.0 0.00 0.00 0.00 99 4098.7
20260507084915 0 94 0.0 0.0 0.00 0.00 0.00 99 4098.7
20260507084412 0 94 0.0 0.0 0.00 0.00 0.00 99 4098.7
20260507083909 0 93 0.0 0.0 0.00 0.00 0.00 99 4098.7
20260507083405 0 93 0.0 0.0 0.00 0.00 0.00 99 4098.7
20260507082902 -1 93 0.0 0.0 0.00 0.00 0.00 99 4098.7
20260507082357 -1 93 0.0 0.0 0.00 0.00 0.00 99 4098.7
20260507081855 -1 93 0.0 0.0 0.00 0.00 0.00 99 4098.7
20260507081351 -1 93 0.0 0.0 0.00 0.00 0.00 99 4099.0
20260507080848 -1 93 0.0 0.0 0.00 0.00 0.00 99 4099.0
20260507080344 -1 93 0.0 0.0 0.00 0.00 0.00 99 4099.0
20260507075839 -1 93 0.0 0.0 0.00 0.00 0.00 99 4098.7
20260507075335 -1 93 0.0 0.0 0.00 0.00 0.00 99 4098.7
20260507074832 -1 93 0.0 0.0 0.00 0.00 0.00 99 4098.7
20260507074330 -1 93 0.0 0.0 0.00 0.00 0.00 99 4099.0
20260507073827 0 93 0.0 0.0 0.00 0.00 0.00 99 4099.0
20260507073323 0 92 0.0 0.0 0.00 0.00 0.00 99 4099.0
20260507072820 -1 92 0.0 0.0 0.00 0.00 0.00 99 4099.4
20260507072318 -1 92 0.0 0.0 0.00 0.00 0.00 99 4099.0
20260507071815 0 92 0.0 0.0 0.00 0.00 0.00 99 4099.0
20260507071312 -1 92 0.0 0.0 0.00 0.00 0.00 99 4099.0
20260507070808 -1 92 0.0 0.0 0.00 0.00 0.00 99 4099.0
20260507070306 -1 92 0.0 0.0 0.00 0.00 0.00 99 4099.0
20260507065802 -1 92 0.0 0.0 0.00 0.00 0.00 99 4099.0
20260507065259 -1 92 0.0 0.0 0.00 0.00 0.00 99 4099.4
20260507064756 0 93 0.0 0.0 0.00 0.00 0.00 99 4099.4
20260507064255 0 93 0.0 0.0 0.00 0.00 0.00 99 4099.4
20260507063753 0 93 0.0 0.0 0.00 0.00 0.00 99 4099.4
20260507063249 0 93 0.0 0.0 0.00 0.00 0.00 98 4099.4
20260507062746 0 93 0.0 0.0 0.00 0.00 0.00 98 4099.4
20260507062243 0 93 0.0 0.0 0.00 0.00 0.00 98 4099.0
20260507061741 0 93 0.0 0.0 0.00 0.00 0.00 98 4099.4
20260507061239 0 93 0.0 0.0 0.00 0.00 0.00 98 4099.4
20260507060737 0 93 0.0 0.0 0.00 0.00 0.00 98 4099.4
20260507060233 0 93 0.0 0.0 0.00 0.00 0.00 97 4099.4
20260507055729 0 93 0.0 0.0 0.00 0.00 0.00 97 4099.4
20260507055225 0 93 0.0 0.0 0.00 0.00 0.00 97 4099.4
20260507054721 0 93 0.0 0.0 0.00 0.00 0.00 97 4099.4
20260507054218 0 93 0.0 0.0 0.00 0.00 0.00 96 4099.4
20260507053716 1 93 0.0 0.0 0.00 0.00 0.00 96 4099.4
20260507053213 1 93 0.0 0.0 0.00 0.00 0.00 96 4099.4
20260507052712 1 93 0.0 0.0 0.00 0.00 0.00 95 4099.4
20260507052208 1 93 0.0 0.0 0.00 0.00 0.00 95 4099.4
20260507051706 1 93 0.0 0.0 0.00 0.00 0.00 95 4099.4
20260507051202 2 93 0.0 0.0 0.00 0.00 0.00 94 4099.7
20260507050659 2 93 0.0 0.0 0.00 0.00 0.00 93 4099.7
20260507050156 2 93 0.0 0.0 0.00 0.00 0.00 93 4099.7
20260507045653 2 92 0.0 0.0 0.00 0.00 0.00 92 4099.7
20260507045149 3 93 0.0 0.0 0.00 0.00 0.00 91 4099.7
20260507044646 3 93 0.0 1.6 0.00 0.00 0.00 92 4099.7
20260507044143 3 92 0.0 1.6 0.00 0.00 0.00 92 4099.4
20260507043639 3 93 0.0 1.6 0.00 0.00 0.00 94 4099.7
20260507043136 3 93 0.0 0.0 0.00 0.00 0.00 94 4099.7
20260507042633 3 93 0.0 1.6 0.00 0.00 0.00 94 4099.7
20260507042127 3 94 0.0 0.0 0.00 0.00 0.00 94 4099.7
20260507041625 3 94 0.0 0.0 0.00 0.00 0.00 94 4099.7
20260507041121 3 94 0.0 0.0 0.00 0.00 0.00 93 4099.7
20260507040618 3 94 0.0 0.0 0.00 0.00 0.00 93 4099.7
20260507040115 3 93 0.0 0.0 0.00 0.00 0.00 93 4099.7
20260507035611 3 94 0.0 0.0 0.00 0.00 0.00 92 4099.7
20260507035107 3 94 0.0 0.0 0.00 0.00 0.00 92 4099.7
20260507034604 3 94 0.0 0.0 0.00 0.00 0.00 91 4100.0
20260507034102 3 94 0.0 0.0 0.00 0.00 0.00 91 4100.0
20260507033600 3 95 0.0 0.0 0.00 0.00 0.00 90 4099.7
20260507033057 3 95 0.0 1.6 0.00 0.00 0.00 90 4099.7
20260507032554 3 95 0.0 0.0 0.00 0.00 0.00 89 4099.7
20260507032050 3 97 0.0 0.0 0.00 0.00 0.00 89 4099.7
20260507031546 3 98 0.0 0.0 0.00 0.00 0.00 89 4099.7
20260507031043 3 98 3.2 3.2 0.00 0.00 0.00 89 4099.7
20260507030540 3 111 0.0 0.0 0.00 0.00 0.00 88 4099.7
20260507030038 3 112 0.0 0.0 0.00 0.00 0.00 87 4099.7
20260507025535 3 112 0.0 0.0 0.00 0.00 0.00 86 4099.7
20260507025032 3 113 0.0 0.0 0.00 0.00 0.00 87 4099.7
20260507024530 3 119 1.6 3.2 0.00 0.00 0.00 89 4099.7
20260507024026 3 125 0.0 0.0 0.00 0.00 0.00 90 4099.7
20260507023522 3 125 0.0 0.0 0.00 0.00 0.00 89 4100.0
20260507023020 3 125 0.0 0.0 0.00 0.00 0.00 89 4099.7
20260507022516 4 125 0.0 0.0 0.00 0.00 0.00 89 4099.7
20260507022012 4 125 0.0 0.0 0.00 0.00 0.00 87 4099.7
20260507021508 4 126 0.0 0.0 0.00 0.00 0.00 86 4099.7
20260507021005 4 234 0.0 0.0 0.00 0.00 0.00 86 4099.7